Location: Killam
(52.7910°N, 111.8608°W)
Time: 10:29:12
(UTC+00:00)

FENGYUN 1C DEB - Pass Details

Date: 04 June 2024
Orbit: 795 x 992 km, 98.4° (Epoch: 16 June)

Event Time Altitude Azimuth Distance (km) Brightness Sun altitude
Rises 07:40:26 0° 8° (N) 3,342 ? -14.6°
Reaches altitude 10° 07:43:14 10° 353° (N) 2,427 ? -14.6°
Maximum altitude 07:47:11 22° 305° (NW) 1,775 ? -14.6°
Drops below altitude 10° 07:51:16 10° 257° (WSW) 2,496 ? -14.5°
Enters shadow 07:54:05 - 243° (WSW) 3,429 ? -14.5°
